Location: Castle Hill Houses
(40.8186°N, 73.8497°W)
Time: 17:13:55
(UTC+00:00)

STARLINK-1053 - Pass Details

Date: 26 January 2020
Orbit: 548 x 551 km, 53.0° (Epoch: 26 February)

Event Time Altitude Azimuth Distance (km) Brightness Sun altitude
Exits shadow 11:16:29 - 241° (WSW) 2,165 6.2 -10.6°
Reaches altitude 10° 11:17:22 10° 242° (WSW) 1,817 5.8 -10.4°
Maximum altitude 11:21:27 63° 324° (NW) 617 3.6 -9.7°
Drops below altitude 10° 11:25:35 10° 46° (NE) 1,828 6.7 -8.9°
Sets 11:27:51 0° 50° (NE) 2,725 7.7 -8.5°
